Regional Weather Roundup
Issued by NWS

Home | Current Version | Previous Version | Text Only | Print | Product List | Glossary Off
Versions: 1 2 3 4 5 6 7 8 9 10 11 12 13 14 15 16 17 18 19 20 21 22 23 24 25 26 27 28 29 30 31 32 33 34 35 36 37 38 39 40 41 42 43 44 45 46 47 48 49 50

000
ASUS43 KBIS 210402
RWRND

NORTH DAKOTA REGIONAL WEATHER ROUNDUP
NATIONAL WEATHER SERVICE BISMARCK ND
1000 PM CST SAT JAN 20 2018

NOTE: "FAIR" INDICATES FEW OR NO CLOUDS BELOW 12,000 FEET WITH NO
SIGNIFICANT WEATHER AND/OR OBSTRUCTIONS TO VISIBILITY.


NDZ001>003-009>011-017-210500-
NORTHWEST NORTH DAKOTA

CITY           SKY/WX    TMP DP  RH WIND       PRES   REMARKS
WILLISTON      CLEAR     21  17  84 SW7       29.93S WCI  12
MINOT          CLEAR     27  20  75 W12       29.92R WCI  17
MINOT AFB      CLEAR     22  18  82 W9        29.90R WCI  12
$$

NDZ018>021-031>035-040>046-210500-
SOUTHWEST NORTH DAKOTA

CITY           SKY/WX    TMP DP  RH WIND       PRES   REMARKS
BISMARCK       MOCLDY    29  24  82 W8        29.95R
DICKINSON      MOCLDY    26  20  77 W10       29.91S WCI  16
GARRISON         N/A     21  17  84 W6        29.92R WCI  13
HETTINGER ARPT CLOUDY    26  20  77 W6        29.96R WCI  19
$$

NDZ004>008-012>016-024-026-027-054-210500-
NORTHEAST NORTH DAKOTA

CITY           SKY/WX    TMP DP  RH WIND       PRES   REMARKS
GRAND FORKS    FAIR      20  19  96 S6        29.90R WCI  12
GRND FRKS AFB  FAIR      31  24  73 NW3       29.89R
DEVILS LAKE    FAIR      24  21  88 W7        29.90R WCI  16
$$

NDZ022-023-025-028>030-036>039-047>053-210500-
SOUTHEAST NORTH DAKOTA

CITY           SKY/WX    TMP DP  RH WIND       PRES   REMARKS
FARGO          FAIR      30  27  88 W5        29.92R
JAMESTOWN      CLOUDY    30  25  81 W3        29.91R
$$





USA.gov is the U.S. government's official web portal to all federal, state and local government web resources and services.